Time,TemperatureF,DewpointF,PressureIn,WindDirection,WindDirectionDegrees,WindSpeedMPH,WindSpeedGustMPH,Humidity,HourlyPrecipIn,Conditions,Clouds,dailyrainin,SolarRadiationWatts/m^2,SoftwareType,DateUTC
2013-01-30 00:01:00,38.8,38.1,30.05,East,88,1.0,8.0,97,0.00,,,0.00,0.0,meteohub,2013-01-30 05:01:00,
2013-01-30 00:02:00,38.7,37.9,30.06,South,177,1.0,8.0,97,0.00,,,0.00,0.0,meteohub,2013-01-30 05:02:00,
2013-01-30 00:04:00,38.7,37.9,30.06,North,355,0.0,8.0,97,0.00,,,0.00,0.0,meteohub,2013-01-30 05:04:00,
2013-01-30 00:06:00,38.5,37.8,30.06,NNW,340,2.0,8.0,97,0.00,,,0.00,0.0,meteohub,2013-01-30 05:06:00,
2013-01-30 00:11:00,38.7,37.9,30.06,East,92,0.0,10.0,97,0.00,,,0.00,0.0,meteohub,2013-01-30 05:11:00,
2013-01-30 00:16:00,38.7,37.9,30.06,ENE,77,3.0,10.0,97,0.00,,,0.00,0.0,meteohub,2013-01-30 05:16:00,
2013-01-30 00:21:00,38.7,37.9,30.06,NE,35,3.0,10.0,97,0.00,,,0.00,0.0,meteohub,2013-01-30 05:21:00,
2013-01-30 00:26:00,38.7,37.9,30.06,SE,131,0.0,6.0,97,0.00,,,0.00,0.0,meteohub,2013-01-30 05:26:00,
2013-01-30 00:32:00,38.7,37.9,30.06,WNW,287,1.0,6.0,97,0.00,,,0.00,0.0,meteohub,2013-01-30 05:32:00,
2013-01-30 00:37:00,38.7,37.9,30.06,West,271,2.0,5.0,97,0.00,,,0.00,0.0,meteohub,2013-01-30 05:37:00,
2013-01-30 00:42:00,38.8,38.1,30.06,West,277,1.0,3.0,97,0.00,,,0.00,0.0,meteohub,2013-01-30 05:42:00,
2013-01-30 00:47:00,38.8,38.1,30.06,SE,138,0.0,3.0,97,0.00,,,0.00,0.0,meteohub,2013-01-30 05:47:00,
2013-01-30 00:52:00,38.8,38.1,30.05,WNW,291,0.0,8.0,97,0.00,,,0.00,0.0,meteohub,2013-01-30 05:52:00,
2013-01-30 00:57:00,38.8,38.1,30.05,South,175,0.0,8.0,97,0.00,,,0.00,0.0,meteohub,2013-01-30 05:57:00,
2013-01-30 01:02:00,38.7,37.9,30.05,WSW,243,0.0,8.0,97,0.00,,,0.00,0.0,meteohub,2013-01-30 06:02:00,
2013-01-30 01:07:00,38.5,37.8,30.04,WNW,302,0.0,4.0,97,0.00,,,0.00,0.0,meteohub,2013-01-30 06:07:00,
2013-01-30 01:12:00,38.5,37.8,30.04,North,9,3.0,5.0,97,0.00,,,0.00,0.0,meteohub,2013-01-30 06:12:00,
2013-01-30 01:17:00,38.7,37.9,30.04,West,271,2.0,8.0,97,0.00,,,0.00,0.0,meteohub,2013-01-30 06:17:00,
2013-01-30 01:22:00,38.7,37.9,30.03,South,179,0.0,8.0,97,0.00,,,0.00,0.0,meteohub,2013-01-30 06:22:00,
2013-01-30 01:27:00,38.7,37.9,30.03,SSW,198,0.0,8.0,97,0.00,,,0.00,0.0,meteohub,2013-01-30 06:27:00,
2013-01-30 01:32:00,38.7,37.9,30.03,South,174,3.0,5.0,97,0.00,,,0.00,0.0,meteohub,2013-01-30 06:32:00,
2013-01-30 01:37:00,38.5,37.8,30.03,North,9,2.0,7.0,97,0.00,,,0.00,0.0,meteohub,2013-01-30 06:37:00,
2013-01-30 01:42:00,38.5,37.8,30.02,South,180,0.0,7.0,97,0.00,,,0.00,0.0,meteohub,2013-01-30 06:42:00,
2013-01-30 01:47:00,38.3,37.6,30.02,WSW,246,2.0,7.0,97,0.00,,,0.00,0.0,meteohub,2013-01-30 06:47:00,
2013-01-30 01:52:00,38.1,37.4,30.01,WNW,283,1.0,5.0,97,0.00,,,0.00,0.0,meteohub,2013-01-30 06:52:00,
2013-01-30 01:57:00,38.1,37.4,30.01,West,277,0.0,3.0,97,0.00,,,0.00,0.0,meteohub,2013-01-30 06:57:00,
2013-01-30 02:02:00,38.1,37.4,30.01,SSE,152,0.0,5.0,97,0.00,,,0.00,0.0,meteohub,2013-01-30 07:02:00,
2013-01-30 02:08:00,38.3,37.6,30.00,SE,124,5.0,5.0,97,0.00,,,0.00,0.0,meteohub,2013-01-30 07:08:00,
2013-01-30 02:13:00,38.3,37.6,30.00,West,273,1.0,5.0,97,0.00,,,0.00,0.0,meteohub,2013-01-30 07:13:00,
2013-01-30 02:18:00,38.3,37.6,30.00,NNE,21,0.0,5.0,97,0.00,,,0.00,0.0,meteohub,2013-01-30 07:18:00,
2013-01-30 02:23:00,38.3,37.6,30.00,WNW,303,1.0,5.0,97,0.00,,,0.00,0.0,meteohub,2013-01-30 07:23:00,
2013-01-30 02:28:00,38.3,37.6,29.99,NE,46,4.0,4.0,97,0.00,,,0.00,0.0,meteohub,2013-01-30 07:28:00,
2013-01-30 02:33:00,38.5,37.8,29.99,SSW,195,1.0,4.0,97,0.00,,,0.00,0.0,meteohub,2013-01-30 07:33:00,
2013-01-30 02:38:00,38.5,37.8,29.99,East,100,1.0,4.0,97,0.00,,,0.00,0.0,meteohub,2013-01-30 07:38:00,
2013-01-30 02:43:00,38.5,37.8,29.99,South,180,0.0,4.0,97,0.00,,,0.00,0.0,meteohub,2013-01-30 07:43:00,
2013-01-30 02:48:00,38.7,38.1,29.99,NNE,14,1.0,4.0,98,0.00,,,0.00,0.0,meteohub,2013-01-30 07:48:00,
2013-01-30 02:53:00,38.7,37.9,29.98,NNE,32,1.0,4.0,97,0.00,,,0.00,0.0,meteohub,2013-01-30 07:53:00,
2013-01-30 02:59:00,38.7,38.1,29.97,NNE,27,1.0,5.0,98,0.00,,,0.00,0.0,meteohub,2013-01-30 07:59:00,
2013-01-30 03:04:00,38.8,38.3,29.97,SSW,212,0.0,5.0,98,0.00,,,0.00,0.0,meteohub,2013-01-30 08:04:00,
2013-01-30 03:09:00,39.0,38.5,29.97,ENE,78,1.0,5.0,98,0.00,,,0.00,0.0,meteohub,2013-01-30 08:09:00,
2013-01-30 03:14:00,39.0,38.5,29.96,South,173,1.0,3.0,98,0.00,,,0.00,0.0,meteohub,2013-01-30 08:14:00,
2013-01-30 03:19:00,39.0,38.5,29.96,South,190,0.0,5.0,98,0.00,,,0.00,0.0,meteohub,2013-01-30 08:19:00,
2013-01-30 03:24:00,39.4,38.8,29.96,ESE,113,1.0,5.0,98,0.00,,,0.00,0.0,meteohub,2013-01-30 08:24:00,
2013-01-30 03:29:00,39.4,38.8,29.95,East,98,0.0,6.0,98,0.00,,,0.00,0.0,meteohub,2013-01-30 08:29:00,
2013-01-30 03:34:00,39.4,38.8,29.95,West,262,4.0,6.0,98,0.00,,,0.00,0.0,meteohub,2013-01-30 08:34:00,
2013-01-30 03:39:00,39.6,39.0,29.94,SSW,202,0.0,6.0,98,0.00,,,0.00,0.0,meteohub,2013-01-30 08:39:00,
2013-01-30 03:44:00,39.6,39.0,29.94,WSW,252,1.0,6.0,98,0.00,,,0.00,0.0,meteohub,2013-01-30 08:44:00,
2013-01-30 03:50:00,39.7,39.2,29.93,WNW,297,0.0,6.0,98,0.00,,,0.00,0.0,meteohub,2013-01-30 08:50:00,
2013-01-30 03:55:00,39.9,39.4,29.93,South,189,1.0,6.0,98,0.00,,,0.00,0.0,meteohub,2013-01-30 08:55:00,
2013-01-30 04:00:00,39.9,39.4,29.93,South,175,0.0,6.0,98,0.00,,,0.00,0.0,meteohub,2013-01-30 09:00:00,
2013-01-30 04:05:00,40.1,39.6,29.92,SW,232,3.0,6.0,98,0.00,,,0.00,0.0,meteohub,2013-01-30 09:05:00,
2013-01-30 04:10:00,40.3,39.7,29.92,WSW,254,2.0,6.0,98,0.00,,,0.00,0.0,meteohub,2013-01-30 09:10:00,
2013-01-30 04:15:00,40.1,39.6,29.91,WSW,242,0.0,6.0,98,0.00,,,0.00,0.0,meteohub,2013-01-30 09:15:00,
2013-01-30 04:20:00,40.3,39.7,29.91,SSW,200,0.0,6.0,98,0.00,,,0.00,0.0,meteohub,2013-01-30 09:20:00,
2013-01-30 04:25:00,40.3,39.7,29.91,WSW,258,3.0,6.0,98,0.00,,,0.00,0.0,meteohub,2013-01-30 09:25:00,
2013-01-30 04:30:00,40.3,39.7,29.91,WSW,238,1.0,6.0,98,0.00,,,0.00,0.0,meteohub,2013-01-30 09:30:00,
2013-01-30 04:35:00,40.3,39.7,29.91,WSW,248,3.0,5.0,98,0.00,,,0.00,0.0,meteohub,2013-01-30 09:35:00,
2013-01-30 04:41:00,40.5,39.9,29.91,WSW,238,0.0,5.0,98,0.00,,,0.00,0.0,meteohub,2013-01-30 09:41:00,
2013-01-30 04:46:00,40.5,39.9,29.91,West,260,1.0,5.0,98,0.00,,,0.00,0.0,meteohub,2013-01-30 09:46:00,
2013-01-30 04:51:00,40.6,40.1,29.90,West,269,2.0,5.0,98,0.00,,,0.00,0.0,meteohub,2013-01-30 09:51:00,
2013-01-30 04:56:00,40.6,40.1,29.90,SSW,198,1.0,5.0,98,0.00,,,0.00,0.0,meteohub,2013-01-30 09:56:00,
2013-01-30 05:01:00,40.6,40.1,29.90,SSW,212,2.0,7.0,98,0.00,,,0.00,0.0,meteohub,2013-01-30 10:01:00,
2013-01-30 05:06:00,40.6,40.1,29.89,SSW,192,1.0,7.0,98,0.00,,,0.00,0.0,meteohub,2013-01-30 10:06:00,
2013-01-30 05:11:00,40.6,40.1,29.90,West,270,1.0,5.0,98,0.00,,,0.00,0.0,meteohub,2013-01-30 10:11:00,
2013-01-30 05:16:00,40.8,40.3,29.89,West,269,3.0,5.0,98,0.00,,,0.00,0.0,meteohub,2013-01-30 10:16:00,
2013-01-30 05:21:00,40.8,40.3,29.90,WSW,246,2.0,5.0,98,0.00,,,0.00,0.0,meteohub,2013-01-30 10:21:00,
2013-01-30 05:26:00,40.8,40.3,29.90,WSW,238,3.0,6.0,98,0.00,,,0.00,0.0,meteohub,2013-01-30 10:26:00,
2013-01-30 05:31:00,41.0,40.5,29.89,WSW,242,7.0,7.0,98,0.00,,,0.00,0.0,meteohub,2013-01-30 10:31:00,
2013-01-30 05:37:00,41.2,40.6,29.89,South,188,1.0,7.0,98,0.00,,,0.00,0.0,meteohub,2013-01-30 10:37:00,
2013-01-30 05:42:00,41.2,40.6,29.89,WSW,240,1.0,7.0,98,0.00,,,0.00,0.0,meteohub,2013-01-30 10:42:00,
2013-01-30 05:47:00,41.4,40.8,29.88,WSW,240,1.0,11.0,98,0.00,,,0.00,0.0,meteohub,2013-01-30 10:47:00,
2013-01-30 05:52:00,41.5,41.0,29.88,WSW,250,1.0,11.0,98,0.00,,,0.00,0.0,meteohub,2013-01-30 10:52:00,
2013-01-30 05:57:00,41.7,41.2,29.88,South,188,7.0,11.0,98,0.00,,,0.00,0.0,meteohub,2013-01-30 10:57:00,
2013-01-30 06:02:00,41.7,41.2,29.88,WSW,251,0.0,7.0,98,0.00,,,0.00,0.0,meteohub,2013-01-30 11:02:00,
2013-01-30 06:07:00,41.7,41.2,29.87,East,88,1.0,7.0,98,0.00,,,0.00,0.0,meteohub,2013-01-30 11:07:00,
2013-01-30 06:12:00,41.7,41.2,29.87,SE,142,0.0,7.0,98,0.00,,,0.00,0.0,meteohub,2013-01-30 11:12:00,
2013-01-30 06:17:00,41.5,41.0,29.87,South,189,0.0,7.0,98,0.00,,,0.00,0.0,meteohub,2013-01-30 11:17:00,
2013-01-30 06:22:00,41.7,41.2,29.86,South,184,0.0,5.0,98,0.00,,,0.00,0.0,meteohub,2013-01-30 11:22:00,
2013-01-30 06:27:00,41.7,41.2,29.86,SW,215,2.0,7.0,98,0.00,,,0.00,0.0,meteohub,2013-01-30 11:27:00,
2013-01-30 06:32:00,41.7,41.2,29.86,SW,230,0.0,7.0,98,0.00,,,0.00,0.0,meteohub,2013-01-30 11:32:00,
2013-01-30 06:37:00,41.5,41.0,29.86,South,184,0.0,7.0,98,0.00,,,0.00,0.0,meteohub,2013-01-30 11:37:00,
2013-01-30 06:42:00,41.5,41.0,29.85,SSW,201,3.0,6.0,98,0.00,,,0.00,0.0,meteohub,2013-01-30 11:42:00,
2013-01-30 06:47:00,41.7,41.2,29.84,SW,229,0.0,6.0,98,0.00,,,0.00,0.0,meteohub,2013-01-30 11:47:00,
2013-01-30 06:52:00,41.9,41.4,29.84,WSW,245,1.0,7.0,98,0.00,,,0.00,0.0,meteohub,2013-01-30 11:52:00,
2013-01-30 06:57:00,42.1,41.5,29.83,WSW,244,0.0,7.0,98,0.00,,,0.00,0.0,meteohub,2013-01-30 11:57:00,
2013-01-30 07:02:00,42.1,41.5,29.84,North,0,0.0,4.0,98,0.00,,,0.00,0.0,meteohub,2013-01-30 12:02:00,
2013-01-30 07:07:00,42.1,41.5,29.83,SSW,211,0.0,4.0,98,0.00,,,0.00,0.0,meteohub,2013-01-30 12:07:00,
2013-01-30 07:12:00,42.1,41.5,29.83,West,281,1.0,7.0,98,0.00,,,0.00,0.0,meteohub,2013-01-30 12:12:00,
2013-01-30 07:17:00,42.1,41.5,29.83,SSW,211,1.0,7.0,98,0.00,,,0.00,0.0,meteohub,2013-01-30 12:17:00,
2013-01-30 07:22:00,42.1,41.5,29.82,SE,130,0.0,7.0,98,0.00,,,0.00,0.0,meteohub,2013-01-30 12:22:00,
2013-01-30 07:27:00,42.3,41.7,29.82,SSW,196,0.0,7.0,98,0.00,,,0.00,0.0,meteohub,2013-01-30 12:27:00,
2013-01-30 07:33:00,42.6,42.1,29.82,ESE,118,2.0,7.0,98,0.00,,,0.00,5.0,meteohub,2013-01-30 12:33:00,
2013-01-30 07:38:00,42.6,42.1,29.81,SSE,157,4.0,7.0,98,0.00,,,0.00,7.0,meteohub,2013-01-30 12:38:00,
2013-01-30 07:43:00,42.6,42.1,29.82,ESE,115,1.0,7.0,98,0.00,,,0.00,5.0,meteohub,2013-01-30 12:43:00,
2013-01-30 07:48:00,42.6,42.1,29.82,SW,214,0.0,7.0,98,0.00,,,0.00,5.0,meteohub,2013-01-30 12:48:00,
2013-01-30 07:53:00,42.6,42.1,29.82,NE,53,2.0,8.0,98,0.00,,,0.00,0.0,meteohub,2013-01-30 12:53:00,
2013-01-30 07:58:00,42.6,42.1,29.81,ENE,68,1.0,8.0,98,0.00,,,0.00,7.0,meteohub,2013-01-30 12:58:00,
2013-01-30 08:03:00,42.4,41.9,29.81,NNE,16,2.0,8.0,98,0.00,,,0.00,11.0,meteohub,2013-01-30 13:03:00,
2013-01-30 08:08:00,42.6,42.1,29.81,East,98,1.0,8.0,98,0.00,,,0.00,11.0,meteohub,2013-01-30 13:08:00,
2013-01-30 08:13:00,42.4,41.9,29.81,SSW,210,5.0,7.0,98,0.00,,,0.00,9.0,meteohub,2013-01-30 13:13:00,
2013-01-30 08:18:00,42.4,41.9,29.81,SW,229,1.0,7.0,98,0.00,,,0.00,12.0,meteohub,2013-01-30 13:18:00,
2013-01-30 08:24:00,42.4,41.9,29.81,West,267,2.0,7.0,98,0.00,,,0.00,9.0,meteohub,2013-01-30 13:24:00,
2013-01-30 08:29:00,42.6,42.1,29.81,WSW,239,4.0,8.0,98,0.00,,,0.00,11.0,meteohub,2013-01-30 13:29:00,
2013-01-30 08:34:00,42.4,41.9,29.81,West,269,1.0,8.0,98,0.00,,,0.00,11.0,meteohub,2013-01-30 13:34:00,
2013-01-30 08:39:00,42.3,41.7,29.80,WSW,248,2.0,8.0,98,0.00,,,0.00,12.0,meteohub,2013-01-30 13:39:00,
2013-01-30 08:44:00,42.3,41.7,29.80,West,271,3.0,7.0,98,0.00,,,0.00,14.0,meteohub,2013-01-30 13:44:00,
2013-01-30 08:49:00,42.1,41.5,29.79,WSW,241,2.0,7.0,98,0.00,,,0.00,18.0,meteohub,2013-01-30 13:49:00,
2013-01-30 08:54:00,41.9,41.4,29.79,SSW,213,1.0,8.0,98,0.00,,,0.00,14.0,meteohub,2013-01-30 13:54:00,
2013-01-30 08:59:00,41.7,41.2,29.79,SSW,200,0.0,8.0,98,0.00,,,0.00,14.0,meteohub,2013-01-30 13:59:00,
2013-01-30 09:05:00,41.7,41.2,29.79,SW,225,2.0,8.0,98,0.00,,,0.00,16.0,meteohub,2013-01-30 14:05:00,
2013-01-30 09:10:00,41.7,41.2,29.78,ENE,75,0.0,7.0,98,0.00,,,0.00,19.0,meteohub,2013-01-30 14:10:00,
2013-01-30 09:15:00,41.7,41.2,29.78,South,184,0.0,5.0,98,0.00,,,0.00,30.0,meteohub,2013-01-30 14:15:00,
2013-01-30 09:20:00,42.1,41.5,29.78,West,259,4.0,5.0,98,0.00,,,0.00,30.0,meteohub,2013-01-30 14:20:00,
2013-01-30 09:25:00,42.1,41.5,29.77,SW,234,3.0,7.0,98,0.00,,,0.00,26.0,meteohub,2013-01-30 14:25:00,
2013-01-30 09:30:00,42.3,41.7,29.77,WSW,237,3.0,7.0,98,0.00,,,0.00,28.0,meteohub,2013-01-30 14:30:00,
2013-01-30 09:35:00,42.3,41.7,29.77,SSW,198,0.0,7.0,98,0.00,,,0.00,30.0,meteohub,2013-01-30 14:35:00,
2013-01-30 09:40:00,42.3,41.7,29.77,WSW,247,1.0,7.0,98,0.00,,,0.00,30.0,meteohub,2013-01-30 14:40:00,
2013-01-30 09:45:00,42.3,41.7,29.76,SW,233,0.0,6.0,98,0.00,,,0.00,30.0,meteohub,2013-01-30 14:45:00,
2013-01-30 09:50:00,42.3,41.7,29.75,WSW,241,1.0,6.0,98,0.00,,,0.00,39.0,meteohub,2013-01-30 14:50:00,
2013-01-30 09:56:00,42.3,41.7,29.75,WSW,255,0.0,6.0,98,0.00,,,0.00,53.0,meteohub,2013-01-30 14:56:00,
2013-01-30 10:01:00,42.4,41.9,29.76,South,178,0.0,4.0,98,0.00,,,0.00,37.0,meteohub,2013-01-30 15:01:00,
2013-01-30 10:06:00,42.4,41.9,29.75,WSW,242,0.0,4.0,98,0.00,,,0.00,33.0,meteohub,2013-01-30 15:06:00,
2013-01-30 10:11:00,42.4,41.9,29.75,WSW,242,0.0,4.0,98,0.00,,,0.00,32.0,meteohub,2013-01-30 15:11:00,
2013-01-30 10:16:00,42.4,41.9,29.75,WSW,242,0.0,3.0,98,0.00,,,0.00,30.0,meteohub,2013-01-30 15:16:00,
2013-01-30 10:21:00,42.6,42.1,29.75,SSW,213,0.0,2.0,98,0.00,,,0.00,33.0,meteohub,2013-01-30 15:21:00,
2013-01-30 10:26:00,42.6,42.1,29.75,SW,236,0.0,3.0,98,0.00,,,0.00,25.0,meteohub,2013-01-30 15:26:00,
2013-01-30 10:31:00,42.4,41.9,29.75,SW,236,2.0,3.0,98,0.00,,,0.00,23.0,meteohub,2013-01-30 15:31:00,
2013-01-30 10:36:00,42.4,41.9,29.75,SW,234,0.0,2.0,98,0.00,,,0.00,23.0,meteohub,2013-01-30 15:36:00,
2013-01-30 10:41:00,42.3,41.7,29.74,SW,235,0.0,4.0,98,0.00,,,0.00,21.0,meteohub,2013-01-30 15:41:00,
2013-01-30 10:47:00,42.3,41.7,29.73,SW,235,0.0,4.0,98,0.00,,,0.00,30.0,meteohub,2013-01-30 15:47:00,
2013-01-30 10:52:00,42.1,41.5,29.73,East,101,0.0,4.0,98,0.00,,,0.00,25.0,meteohub,2013-01-30 15:52:00,
2013-01-30 10:57:00,42.1,41.5,29.73,East,101,0.0,3.0,98,0.00,,,0.00,25.0,meteohub,2013-01-30 15:57:00,
2013-01-30 11:02:00,41.7,41.2,29.72,ENE,57,1.0,3.0,98,0.00,,,0.00,28.0,meteohub,2013-01-30 16:02:00,
2013-01-30 11:07:00,41.7,41.2,29.72,East,99,0.0,2.0,98,0.00,,,0.00,21.0,meteohub,2013-01-30 16:07:00,
2013-01-30 11:12:00,41.7,41.2,29.72,East,98,1.0,2.0,98,0.00,,,0.00,26.0,meteohub,2013-01-30 16:12:00,
2013-01-30 11:17:00,41.7,41.2,29.72,East,98,2.0,2.0,98,0.00,,,0.00,26.0,meteohub,2013-01-30 16:17:00,
2013-01-30 11:22:00,42.1,41.5,29.72,East,101,1.0,2.0,98,0.00,,,0.00,28.0,meteohub,2013-01-30 16:22:00,
2013-01-30 11:27:00,42.1,41.5,29.71,East,101,0.0,3.0,98,0.00,,,0.00,26.0,meteohub,2013-01-30 16:27:00,
2013-01-30 11:32:00,42.3,41.7,29.71,SSE,159,0.0,3.0,98,0.00,,,0.00,21.0,meteohub,2013-01-30 16:32:00,
2013-01-30 11:37:00,42.3,41.7,29.70,NNW,332,1.0,4.0,98,0.00,,,0.00,23.0,meteohub,2013-01-30 16:37:00,
2013-01-30 11:42:00,42.3,41.7,29.70,ENE,68,0.0,5.0,98,0.00,,,0.00,26.0,meteohub,2013-01-30 16:42:00,
2013-01-30 11:48:00,42.4,41.9,29.69,ENE,67,0.0,5.0,98,0.00,,,0.00,39.0,meteohub,2013-01-30 16:48:00,
2013-01-30 11:53:00,42.4,41.9,29.68,ENE,67,0.0,5.0,98,0.00,,,0.00,35.0,meteohub,2013-01-30 16:53:00,
2013-01-30 11:58:00,42.6,42.4,29.68,North,349,1.0,3.0,99,0.00,,,0.00,39.0,meteohub,2013-01-30 16:58:00,
2013-01-30 12:03:00,43.0,42.4,29.68,NNW,333,0.0,3.0,98,0.00,,,0.00,44.0,meteohub,2013-01-30 17:03:00,
2013-01-30 12:08:00,42.8,42.6,29.67,NNW,333,0.0,3.0,99,0.00,,,0.00,32.0,meteohub,2013-01-30 17:08:00,
2013-01-30 12:13:00,42.8,42.6,29.67,NNW,333,0.0,3.0,99,0.00,,,0.00,28.0,meteohub,2013-01-30 17:13:00,
2013-01-30 12:18:00,42.6,42.4,29.67,WSW,243,0.0,2.0,99,0.00,,,0.00,25.0,meteohub,2013-01-30 17:18:00,
2013-01-30 12:23:00,42.4,41.9,29.67,WSW,244,0.0,3.0,98,0.00,,,0.00,25.0,meteohub,2013-01-30 17:23:00,
2013-01-30 12:28:00,42.8,42.6,29.67,WSW,244,0.0,3.0,99,0.00,,,0.00,21.0,meteohub,2013-01-30 17:28:00,
2013-01-30 12:33:00,43.0,42.8,29.67,WSW,244,0.0,3.0,99,0.00,,,0.00,19.0,meteohub,2013-01-30 17:33:00,
2013-01-30 12:39:00,43.0,42.8,29.67,WSW,244,0.0,2.0,99,0.00,,,0.00,12.0,meteohub,2013-01-30 17:39:00,
2013-01-30 12:44:00,43.2,43.0,29.67,WSW,244,0.0,2.0,99,0.00,,,0.00,14.0,meteohub,2013-01-30 17:44:00,
2013-01-30 12:49:00,43.2,43.0,29.67,WSW,241,0.0,2.0,99,0.00,,,0.00,21.0,meteohub,2013-01-30 17:49:00,
2013-01-30 12:54:00,43.3,43.2,29.66,WSW,241,0.0,2.0,99,0.00,,,0.00,26.0,meteohub,2013-01-30 17:54:00,
2013-01-30 12:59:00,44.1,43.9,29.66,South,182,1.0,2.0,99,0.00,,,0.00,18.0,meteohub,2013-01-30 17:59:00,
2013-01-30 13:04:00,44.6,44.4,29.65,ESE,121,0.0,3.0,99,0.00,,,0.00,14.0,meteohub,2013-01-30 18:04:00,
2013-01-30 13:09:00,45.1,45.0,29.65,West,261,1.0,4.0,99,0.00,,,0.00,18.0,meteohub,2013-01-30 18:09:00,
2013-01-30 13:15:00,45.0,44.8,29.65,West,261,0.0,4.0,99,0.00,,,0.00,18.0,meteohub,2013-01-30 18:15:00,
2013-01-30 13:20:00,44.4,44.2,29.64,West,261,0.0,2.0,99,0.00,,,0.00,21.0,meteohub,2013-01-30 18:20:00,
2013-01-30 13:25:00,44.1,43.9,29.63,West,275,0.0,2.0,99,0.00,,,0.00,23.0,meteohub,2013-01-30 18:25:00,
2013-01-30 13:30:00,44.1,43.9,29.63,West,275,0.0,2.0,99,0.00,,,0.00,14.0,meteohub,2013-01-30 18:30:00,
2013-01-30 13:35:00,44.2,44.1,29.62,West,275,0.0,1.0,99,0.00,,,0.00,16.0,meteohub,2013-01-30 18:35:00,
2013-01-30 13:40:00,44.2,44.1,29.62,West,275,0.0,1.0,99,0.00,,,0.00,14.0,meteohub,2013-01-30 18:40:00,
2013-01-30 13:45:00,44.1,43.9,29.61,West,275,0.0,1.0,99,0.00,,,0.00,14.0,meteohub,2013-01-30 18:45:00,
2013-01-30 13:50:00,44.1,43.9,29.61,West,275,0.0,1.0,99,0.00,,,0.00,19.0,meteohub,2013-01-30 18:50:00,
2013-01-30 13:56:00,44.1,43.9,29.61,West,275,0.0,1.0,99,0.00,,,0.00,18.0,meteohub,2013-01-30 18:56:00,
2013-01-30 14:01:00,44.1,43.9,29.61,West,275,0.0,1.0,99,0.00,,,0.00,16.0,meteohub,2013-01-30 19:01:00,
2013-01-30 14:06:00,44.2,44.1,29.61,West,275,0.0,1.0,99,0.00,,,0.00,14.0,meteohub,2013-01-30 19:06:00,
2013-01-30 14:11:00,44.2,44.1,29.60,West,275,0.0,1.0,99,0.00,,,0.00,11.0,meteohub,2013-01-30 19:11:00,
2013-01-30 14:16:00,44.2,44.1,29.60,West,275,0.0,0.0,99,0.00,,,0.00,12.0,meteohub,2013-01-30 19:16:00,
2013-01-30 14:21:00,44.6,44.4,29.60,West,275,0.0,1.0,99,0.00,,,0.00,14.0,meteohub,2013-01-30 19:21:00,
2013-01-30 14:26:00,44.8,44.6,29.59,West,275,0.0,1.0,99,0.00,,,0.00,12.0,meteohub,2013-01-30 19:26:00,
2013-01-30 14:31:00,44.4,44.2,29.59,West,275,0.0,1.0,99,0.00,,,0.00,14.0,meteohub,2013-01-30 19:31:00,
2013-01-30 14:37:00,44.2,44.1,29.59,West,275,0.0,1.0,99,0.00,,,0.00,12.0,meteohub,2013-01-30 19:37:00,
2013-01-30 14:42:00,44.1,43.9,29.58,West,275,0.0,1.0,99,0.00,,,0.00,12.0,meteohub,2013-01-30 19:42:00,
2013-01-30 14:47:00,43.9,43.7,29.58,West,275,0.0,1.0,99,0.00,,,0.00,14.0,meteohub,2013-01-30 19:47:00,
2013-01-30 14:52:00,44.2,44.1,29.58,West,275,0.0,1.0,99,0.00,,,0.00,9.0,meteohub,2013-01-30 19:52:00,
2013-01-30 14:57:00,44.2,44.1,29.57,West,275,0.0,1.0,99,0.00,,,0.00,9.0,meteohub,2013-01-30 19:57:00,
2013-01-30 15:02:00,44.1,43.9,29.58,WNW,284,0.0,1.0,99,0.00,,,0.00,7.0,meteohub,2013-01-30 20:02:00,
2013-01-30 15:07:00,44.2,44.1,29.57,ENE,58,0.0,2.0,99,0.00,,,0.00,9.0,meteohub,2013-01-30 20:07:00,
2013-01-30 15:12:00,44.2,44.1,29.58,ENE,58,0.0,3.0,99,0.00,,,0.00,7.0,meteohub,2013-01-30 20:12:00,
2013-01-30 15:17:00,44.2,44.1,29.58,ENE,58,0.0,3.0,99,0.00,,,0.00,5.0,meteohub,2013-01-30 20:17:00,
2013-01-30 15:22:00,44.2,44.1,29.57,ENE,61,0.0,1.0,99,0.00,,,0.00,11.0,meteohub,2013-01-30 20:22:00,
2013-01-30 15:27:00,44.2,44.1,29.58,ENE,61,0.0,1.0,99,0.00,,,0.00,12.0,meteohub,2013-01-30 20:27:00,
2013-01-30 15:32:00,44.1,43.9,29.58,ENE,61,0.0,1.0,99,0.00,,,0.00,7.0,meteohub,2013-01-30 20:32:00,
2013-01-30 15:37:00,44.1,43.9,29.58,ENE,61,0.0,0.0,99,0.00,,,0.00,5.0,meteohub,2013-01-30 20:37:00,
2013-01-30 15:42:00,44.1,43.9,29.58,ENE,61,0.0,1.0,99,0.00,,,0.00,0.0,meteohub,2013-01-30 20:42:00,
2013-01-30 15:47:00,44.1,43.9,29.57,ENE,61,0.0,1.0,99,0.00,,,0.00,0.0,meteohub,2013-01-30 20:47:00,
2013-01-30 15:52:00,44.1,43.9,29.57,ENE,61,0.0,0.0,99,0.00,,,0.00,0.0,meteohub,2013-01-30 20:52:00,
2013-01-30 15:57:00,44.2,44.1,29.57,ENE,61,0.0,0.0,99,0.00,,,0.00,0.0,meteohub,2013-01-30 20:57:00,
2013-01-30 16:02:00,44.2,44.1,29.56,ENE,61,0.0,0.0,99,0.00,,,0.00,0.0,meteohub,2013-01-30 21:02:00,
2013-01-30 16:07:00,44.1,43.9,29.56,NW,324,0.0,2.0,99,0.00,,,0.00,7.0,meteohub,2013-01-30 21:07:00,
2013-01-30 16:12:00,44.6,44.4,29.55,East,84,0.0,2.0,99,0.00,,,0.00,5.0,meteohub,2013-01-30 21:12:00,
2013-01-30 16:17:00,47.1,46.9,29.55,SE,142,0.0,2.0,99,0.00,,,0.00,5.0,meteohub,2013-01-30 21:17:00,
2013-01-30 16:22:00,49.5,49.3,29.55,South,186,0.0,3.0,99,0.00,,,0.00,5.0,meteohub,2013-01-30 21:22:00,
2013-01-30 16:27:00,50.7,50.4,29.55,WSW,240,0.0,3.0,99,0.00,,,0.00,0.0,meteohub,2013-01-30 21:27:00,
2013-01-30 16:32:00,51.6,51.3,29.55,SSW,193,0.0,3.0,99,0.00,,,0.00,0.0,meteohub,2013-01-30 21:32:00,
2013-01-30 16:37:00,52.2,51.8,29.55,SE,140,0.0,3.0,99,0.00,,,0.00,5.0,meteohub,2013-01-30 21:37:00,
2013-01-30 16:42:00,52.2,51.8,29.55,WSW,257,1.0,3.0,99,0.00,,,0.00,0.0,meteohub,2013-01-30 21:42:00,
2013-01-30 16:47:00,52.3,52.0,29.55,WSW,250,0.0,3.0,99,0.00,,,0.00,0.0,meteohub,2013-01-30 21:47:00,
2013-01-30 16:52:00,52.3,52.0,29.55,WSW,250,0.0,3.0,99,0.00,,,0.00,0.0,meteohub,2013-01-30 21:52:00,
2013-01-30 16:57:00,52.2,51.8,29.55,WSW,249,0.0,3.0,99,0.00,,,0.00,0.0,meteohub,2013-01-30 21:57:00,
2013-01-30 17:02:00,51.8,51.4,29.55,WSW,245,0.0,2.0,99,0.00,,,0.00,0.0,meteohub,2013-01-30 22:02:00,
2013-01-30 17:07:00,51.6,51.3,29.55,WSW,245,0.0,2.0,99,0.00,,,0.00,0.0,meteohub,2013-01-30 22:07:00,
2013-01-30 17:12:00,51.4,51.1,29.55,WSW,245,0.0,2.0,99,0.00,,,0.00,0.0,meteohub,2013-01-30 22:12:00,
2013-01-30 17:17:00,51.4,51.1,29.55,WSW,247,0.0,1.0,99,0.00,,,0.00,0.0,meteohub,2013-01-30 22:17:00,
2013-01-30 17:22:00,51.3,50.9,29.55,NNE,12,0.0,1.0,99,0.00,,,0.00,0.0,meteohub,2013-01-30 22:22:00,
2013-01-30 17:27:00,50.9,50.5,29.56,NNE,12,0.0,1.0,99,0.00,,,0.00,0.0,meteohub,2013-01-30 22:27:00,
2013-01-30 17:32:00,50.5,50.2,29.56,North,355,0.0,2.0,99,0.00,,,0.00,0.0,meteohub,2013-01-30 22:32:00,
2013-01-30 17:37:00,50.2,49.8,29.56,North,355,0.0,2.0,99,0.00,,,0.00,0.0,meteohub,2013-01-30 22:37:00,
2013-01-30 17:42:00,49.6,49.5,29.55,North,355,0.0,2.0,99,0.00,,,0.00,0.0,meteohub,2013-01-30 22:42:00,
2013-01-30 17:47:00,49.6,49.5,29.55,East,96,0.0,2.0,99,0.00,,,0.00,0.0,meteohub,2013-01-30 22:47:00,
2013-01-30 17:52:00,48.7,48.6,29.55,East,97,0.0,2.0,99,0.00,,,0.00,0.0,meteohub,2013-01-30 22:52:00,
2013-01-30 17:57:00,48.2,48.0,29.55,East,97,0.0,2.0,99,0.00,,,0.00,0.0,meteohub,2013-01-30 22:57:00,
2013-01-30 18:02:00,48.6,48.4,29.56,East,97,0.0,1.0,99,0.00,,,0.00,0.0,meteohub,2013-01-30 23:02:00,
2013-01-30 18:07:00,48.7,48.6,29.56,WSW,248,1.0,1.0,99,0.00,,,0.00,0.0,meteohub,2013-01-30 23:07:00,
2013-01-30 18:12:00,48.6,48.4,29.55,South,189,0.0,3.0,99,0.00,,,0.00,0.0,meteohub,2013-01-30 23:12:00,
2013-01-30 18:17:00,48.4,48.2,29.55,SW,226,1.0,3.0,99,0.00,,,0.00,0.0,meteohub,2013-01-30 23:17:00,
2013-01-30 18:22:00,48.4,48.2,29.55,SW,226,0.0,3.0,99,0.00,,,0.00,0.0,meteohub,2013-01-30 23:22:00,
2013-01-30 18:27:00,48.4,48.2,29.54,SW,226,0.0,2.0,99,0.00,,,0.00,0.0,meteohub,2013-01-30 23:27:00,
2013-01-30 18:32:00,48.6,48.4,29.55,WNW,289,0.0,2.0,99,0.00,,,0.00,0.0,meteohub,2013-01-30 23:32:00,
2013-01-30 18:37:00,48.0,47.8,29.55,WNW,290,0.0,2.0,99,0.00,,,0.00,0.0,meteohub,2013-01-30 23:37:00,
2013-01-30 18:42:00,47.7,47.5,29.55,WNW,290,0.0,2.0,99,0.00,,,0.00,0.0,meteohub,2013-01-30 23:42:00,
2013-01-30 18:47:00,47.5,47.3,29.54,WNW,290,0.0,0.0,99,0.00,,,0.00,0.0,meteohub,2013-01-30 23:47:00,
2013-01-30 18:52:00,47.5,47.3,29.55,West,270,0.0,0.0,99,0.00,,,0.00,0.0,meteohub,2013-01-30 23:52:00,
2013-01-30 18:57:00,47.8,47.7,29.55,West,270,0.0,1.0,99,0.00,,,0.00,0.0,meteohub,2013-01-30 23:57:00,
2013-01-30 19:02:00,48.0,47.8,29.54,West,270,0.0,1.0,99,0.00,,,0.00,0.0,meteohub,2013-01-31 00:02:00,
2013-01-30 19:07:00,48.6,48.4,29.54,West,270,0.0,2.0,99,0.00,,,0.00,0.0,meteohub,2013-01-31 00:07:00,
2013-01-30 19:12:00,49.3,49.1,29.54,West,271,0.0,2.0,99,0.00,,,0.00,0.0,meteohub,2013-01-31 00:12:00,
2013-01-30 19:17:00,50.2,49.8,29.54,ESE,110,0.0,2.0,99,0.00,,,0.00,0.0,meteohub,2013-01-31 00:17:00,
2013-01-30 19:22:00,50.2,49.8,29.53,ESE,110,0.0,2.0,99,0.00,,,0.00,0.0,meteohub,2013-01-31 00:22:00,
2013-01-30 19:27:00,49.8,49.5,29.53,ESE,110,0.0,2.0,99,0.00,,,0.00,0.0,meteohub,2013-01-31 00:27:00,
2013-01-30 19:32:00,49.8,49.5,29.52,ESE,110,0.0,0.0,99,0.00,,,0.00,0.0,meteohub,2013-01-31 00:32:00,
2013-01-30 19:37:00,49.5,49.3,29.52,South,184,0.0,0.0,99,0.00,,,0.00,0.0,meteohub,2013-01-31 00:37:00,
2013-01-30 19:42:00,49.1,48.9,29.52,South,184,0.0,1.0,99,0.00,,,0.00,0.0,meteohub,2013-01-31 00:42:00,
2013-01-30 19:47:00,48.6,48.4,29.53,South,186,0.0,1.0,99,0.00,,,0.00,0.0,meteohub,2013-01-31 00:47:00,
2013-01-30 19:52:00,48.6,48.4,29.53,South,186,0.0,2.0,99,0.00,,,0.00,0.0,meteohub,2013-01-31 00:52:00,
2013-01-30 19:57:00,48.2,48.0,29.53,South,186,0.0,2.0,99,0.00,,,0.00,0.0,meteohub,2013-01-31 00:57:00,
2013-01-30 20:02:00,47.8,47.7,29.53,South,186,1.0,2.0,99,0.00,,,0.00,0.0,meteohub,2013-01-31 01:02:00,
2013-01-30 20:07:00,47.5,47.3,29.54,South,186,0.0,2.0,99,0.00,,,0.00,0.0,meteohub,2013-01-31 01:07:00,
2013-01-30 20:12:00,47.5,47.3,29.52,South,186,0.0,2.0,99,0.00,,,0.00,0.0,meteohub,2013-01-31 01:12:00,
2013-01-30 20:17:00,47.5,47.3,29.52,South,186,0.0,2.0,99,0.00,,,0.00,0.0,meteohub,2013-01-31 01:17:00,
2013-01-30 20:22:00,47.5,47.3,29.52,South,186,0.0,1.0,99,0.00,,,0.00,0.0,meteohub,2013-01-31 01:22:00,
2013-01-30 20:27:00,47.5,47.3,29.52,SW,221,0.0,1.0,99,0.00,,,0.00,0.0,meteohub,2013-01-31 01:27:00,
2013-01-30 20:32:00,47.1,46.9,29.52,SW,221,0.0,2.0,99,0.00,,,0.00,0.0,meteohub,2013-01-31 01:32:00,
2013-01-30 20:37:00,47.1,46.9,29.52,SW,221,0.0,2.0,99,0.00,,,0.00,0.0,meteohub,2013-01-31 01:37:00,
2013-01-30 20:42:00,46.9,46.8,29.52,SW,221,0.0,1.0,99,0.00,,,0.00,0.0,meteohub,2013-01-31 01:42:00,
2013-01-30 20:47:00,46.8,46.6,29.51,SW,221,2.0,2.0,99,0.00,,,0.00,0.0,meteohub,2013-01-31 01:47:00,
2013-01-30 20:52:00,46.4,46.2,29.51,SW,221,0.0,2.0,99,0.00,,,0.00,0.0,meteohub,2013-01-31 01:52:00,
2013-01-30 20:57:00,46.6,46.4,29.50,SW,221,0.0,2.0,99,0.00,,,0.00,0.0,meteohub,2013-01-31 01:57:00,
2013-01-30 21:02:00,46.4,46.2,29.50,SW,221,0.0,2.0,99,0.00,,,0.00,0.0,meteohub,2013-01-31 02:02:00,
2013-01-30 21:07:00,46.4,46.2,29.50,SW,221,0.0,1.0,99,0.00,,,0.00,0.0,meteohub,2013-01-31 02:07:00,
2013-01-30 21:12:00,46.6,46.4,29.50,SW,221,0.0,1.0,99,0.00,,,0.00,0.0,meteohub,2013-01-31 02:12:00,
2013-01-30 21:17:00,46.8,46.6,29.50,SW,221,0.0,1.0,99,0.00,,,0.00,0.0,meteohub,2013-01-31 02:17:00,
2013-01-30 21:22:00,46.6,46.4,29.50,SW,221,0.0,1.0,99,0.00,,,0.00,0.0,meteohub,2013-01-31 02:22:00,
2013-01-30 21:27:00,46.8,46.6,29.49,SW,221,0.0,1.0,99,0.00,,,0.00,0.0,meteohub,2013-01-31 02:27:00,
2013-01-30 21:32:00,46.8,46.6,29.49,SW,221,0.0,1.0,99,0.00,,,0.00,0.0,meteohub,2013-01-31 02:32:00,
2013-01-30 21:37:00,46.8,46.6,29.49,SW,221,0.0,1.0,99,0.00,,,0.00,0.0,meteohub,2013-01-31 02:37:00,
2013-01-30 21:42:00,46.9,46.8,29.49,SW,221,0.0,0.0,99,0.00,,,0.00,0.0,meteohub,2013-01-31 02:42:00,
2013-01-30 21:47:00,47.3,47.1,29.48,SW,221,0.0,0.0,99,0.00,,,0.00,0.0,meteohub,2013-01-31 02:47:00,
2013-01-30 21:52:00,47.7,47.5,29.47,SW,221,0.0,0.0,99,0.00,,,0.00,0.0,meteohub,2013-01-31 02:52:00,
2013-01-30 21:57:00,48.2,48.0,29.46,SW,221,0.0,0.0,99,0.00,,,0.00,0.0,meteohub,2013-01-31 02:57:00,
2013-01-30 22:02:00,48.9,48.7,29.45,SW,221,0.0,1.0,99,0.00,,,0.00,0.0,meteohub,2013-01-31 03:02:00,
2013-01-30 22:07:00,49.5,49.3,29.45,SW,219,0.0,1.0,99,0.00,,,0.00,0.0,meteohub,2013-01-31 03:07:00,
2013-01-30 22:12:00,49.8,49.5,29.46,SW,219,0.0,1.0,99,0.00,,,0.00,0.0,meteohub,2013-01-31 03:12:00,
2013-01-30 22:17:00,50.4,50.0,29.45,SW,219,0.0,1.0,99,0.00,,,0.00,0.0,meteohub,2013-01-31 03:17:00,
2013-01-30 22:22:00,50.5,50.2,29.44,SW,218,0.0,0.0,99,0.00,,,0.00,0.0,meteohub,2013-01-31 03:22:00,
2013-01-30 22:27:00,50.7,50.4,29.45,SW,218,0.0,2.0,99,0.00,,,0.00,0.0,meteohub,2013-01-31 03:27:00,
2013-01-30 22:32:00,50.9,50.5,29.44,SW,218,0.0,2.0,99,0.00,,,0.00,0.0,meteohub,2013-01-31 03:32:00,
2013-01-30 22:37:00,50.7,50.4,29.43,SW,218,0.0,2.0,99,0.00,,,0.00,0.0,meteohub,2013-01-31 03:37:00,
2013-01-30 22:42:00,50.7,50.4,29.42,SW,218,0.0,1.0,99,0.00,,,0.00,0.0,meteohub,2013-01-31 03:42:00,
2013-01-30 22:47:00,50.7,50.4,29.41,SW,218,0.0,0.0,99,0.00,,,0.00,0.0,meteohub,2013-01-31 03:47:00,
2013-01-30 22:52:00,50.2,49.8,29.42,SW,218,0.0,0.0,99,0.00,,,0.00,0.0,meteohub,2013-01-31 03:52:00,
2013-01-30 22:57:00,50.2,49.8,29.42,SW,218,0.0,1.0,99,0.00,,,0.00,0.0,meteohub,2013-01-31 03:57:00,
2013-01-30 23:02:00,50.5,50.2,29.42,SW,218,0.0,1.0,99,0.00,,,0.00,0.0,meteohub,2013-01-31 04:02:00,
2013-01-30 23:07:00,50.7,50.4,29.41,SW,218,0.0,1.0,99,0.00,,,0.00,0.0,meteohub,2013-01-31 04:07:00,
2013-01-30 23:12:00,50.7,50.4,29.41,SW,218,0.0,1.0,99,0.00,,,0.00,0.0,meteohub,2013-01-31 04:12:00,
2013-01-30 23:17:00,50.5,50.2,29.40,SW,218,0.0,1.0,99,0.00,,,0.00,0.0,meteohub,2013-01-31 04:17:00,
2013-01-30 23:22:00,50.4,50.0,29.39,SW,218,0.0,0.0,99,0.00,,,0.00,0.0,meteohub,2013-01-31 04:22:00,
2013-01-30 23:27:00,49.8,49.5,29.39,SW,218,0.0,0.0,99,0.00,,,0.00,0.0,meteohub,2013-01-31 04:27:00,
2013-01-30 23:32:00,49.6,49.5,29.38,SW,218,0.0,0.0,99,0.00,,,0.00,0.0,meteohub,2013-01-31 04:32:00,
2013-01-30 23:37:00,49.5,49.3,29.38,SW,218,0.0,0.0,99,0.00,,,0.00,0.0,meteohub,2013-01-31 04:37:00,
2013-01-30 23:42:00,49.3,49.1,29.36,SW,218,0.0,0.0,99,0.00,,,0.00,0.0,meteohub,2013-01-31 04:42:00,
2013-01-30 23:47:00,49.1,48.9,29.36,SW,218,0.0,1.0,99,0.00,,,0.00,0.0,meteohub,2013-01-31 04:47:00,
2013-01-30 23:52:00,48.6,48.4,29.36,SW,218,0.0,1.0,99,0.00,,,0.00,0.0,meteohub,2013-01-31 04:52:00,
2013-01-30 23:57:00,48.2,48.0,29.35,SW,218,0.0,2.0,99,0.00,,,0.00,0.0,meteohub,2013-01-31 04:57:00,